Location: Moscow
(55.7500°N, 37.5830°E)
Time: 00:44:56
(UTC+03:00)

Vanguard 3 - Pass Details

Date: 08 December 2021
Orbit: 508 x 3260 km, 33.3° (Epoch: 17 January)

Event Time Altitude Azimuth Distance (km) Brightness Sun altitude
Rises 09:05:20 0° 269° (W) 7,116 11.5 1.2°
Reaches altitude 10° 09:13:45 10° 250° (WSW) 5,734 11.3 2.0°
Maximum altitude 09:20:49 14° 225° (SW) 4,909 11.2 2.7°
Drops below altitude 10° 09:26:51 10° 199° (SSW) 4,729 11.5 3.2°
Sets 09:32:29 0° 177° (S) 5,143 12.3 3.7°
